[TLELIST] Archives

 

[list_settings.list_name] Current TLEs

December 27th 2009 PST

HST 1 20580U 90037B 09359.03106399 .00000424 00000-0 19702-4 0 4933 2 20580 028.4715 296.7007 0003494 148.8817 211.2004 15.00870797878559 ISS (ZARYA) 1 25544U 98067A 09360.41054398 .00014385 00000-0 90530-4 0 2481 2 25544 051.6441 038.6723 0008021 115.4114 069.3127 15.76969295636248 CXO 1 25867U 99040B 09359.54166667 .00000142 00000-0 10000-3 0 4094 2 25867 066.2962 061.7577 7877884 275.2565 359.6776 00.37808944 5736 ____________________________________________________________________ These 2-Line ...Continue Reading

[list_settings.list_name] Current TLEs

December 26th 2009 PST

HST 1 20580U 90037B 09359.03106399 .00000424 00000-0 19702-4 0 4933 2 20580 028.4715 296.7007 0003494 148.8817 211.2004 15.00870797878559 ISS (ZARYA) 1 25544U 98067A 09359.39653935 .00015112 00000-0 95007-4 0 2414 2 25544 051.6440 043.9009 0007993 113.2885 071.0148 15.76941822636082 CXO 1 25867U 99040B 09359.54166667 .00000142 00000-0 10000-3 0 4094 2 25867 066.2962 061.7577 7877884 275.2565 359.6776 00.37808944 5736 ____________________________________________________________________ These 2-Line ...Continue Reading

[list_settings.list_name] Current TLEs

December 25th 2009 PST

HST 1 20580U 90037B 09357.30213847 .00000407 00000-0 18376-4 0 4924 2 20580 028.4717 307.9826 0003481 131.1307 228.9628 15.00869724878296 ISS (ZARYA) 1 25544U 98067A 09358.36948194 .00014819 00000-0 93384-4 0 2345 2 25544 051.6441 049.1980 0007961 109.5929 000.2334 15.76908631635925 CXO 1 25867U 99040B 09356.87500000 .00000138 00000-0 10000-3 0 4084 2 25867 066.2825 061.8845 7874229 275.2338 356.7155 00.37806980 5727 ____________________________________________________________________ These 2-Line ...Continue Reading

[list_settings.list_name] Current TLEs

December 24th 2009 PST

HST 1 20580U 90037B 09354.37626171 .00000406 00000-0 18295-4 0 4914 2 20580 028.4720 327.0879 0003273 105.5218 254.5846 15.00868287877857 ISS (ZARYA) 1 25544U 98067A 09357.41896068 .00014267 00000-0 90181-4 0 2295 2 25544 051.6442 054.0996 0008068 106.3741 003.8607 15.76876725635777 CXO 1 25867U 99040B 09356.87500000 .00000138 00000-0 10000-3 0 4084 2 25867 066.2825 061.8845 7874229 275.2338 356.7155 00.37806980 5727 ____________________________________________________________________ These 2-Line ...Continue Reading

[list_settings.list_name] Current TLEs

December 23rd 2009 PST

HST 1 20580U 90037B 09354.37626171 .00000406 00000-0 18295-4 0 4914 2 20580 028.4720 327.0879 0003273 105.5218 254.5846 15.00868287877857 ISS (ZARYA) 1 25544U 98067A 09356.40362567 .00014571 00000-0 92134-4 0 2226 2 25544 051.6446 059.3357 0008001 102.9852 359.6015 15.76847351635613 CXO 1 25867U 99040B 09356.87500000 .00000138 00000-0 10000-3 0 4084 2 25867 066.2825 061.8845 7874229 275.2338 356.7155 00.37806980 5727 ____________________________________________________________________ These 2-Line ...Continue Reading

[list_settings.list_name] Current TLEs

December 22nd 2009 PST

HST 1 20580U 90037B 09354.37626171 .00000406 00000-0 18295-4 0 4914 2 20580 028.4720 327.0879 0003273 105.5218 254.5846 15.00868287877857 ISS (ZARYA) 1 25544U 98067A 09355.38924199 .00019446 00000-0 12160-3 0 2144 2 25544 051.6442 064.5659 0008486 096.5676 003.8996 15.76830280635452 CXO 1 25867U 99040B 09354.25000000 .00000050 00000-0 10000-3 0 4071 2 25867 066.2710 061.9752 7870139 275.2260 359.4126 00.37805398 5717 ____________________________________________________________________ These 2-Line ...Continue Reading

[list_settings.list_name] Current TLEs

December 21st 2009 PST

HST 1 20580U 90037B 09351.11789052 .00000316 00000-0 11404-4 0 4905 2 20580 028.4720 348.3487 0003274 070.8937 289.2065 15.00866238877369 ISS (ZARYA) 1 25544U 98067A 09354.37358069 .00144858 00000-0 86866-3 0 2071 2 25544 051.6388 069.8006 0007723 098.3702 352.8005 15.76795175635291 CXO 1 25867U 99040B 09354.25000000 .00000050 00000-0 10000-3 0 4071 2 25867 066.2710 061.9752 7870139 275.2260 359.4126 00.37805398 5717 ____________________________________________________________________ These 2-Line ...Continue Reading

[list_settings.list_name] Current TLEs

December 20th 2009 PST

HST 1 20580U 90037B 09351.11789052 .00000316 00000-0 11404-4 0 4905 2 20580 028.4720 348.3487 0003274 070.8937 289.2065 15.00866238877369 ISS (ZARYA) 1 25544U 98067A 09353.36406006 .00025595 00000-0 15915-3 0 2000 2 25544 051.6444 075.0076 0008066 093.4904 023.3908 15.76763746635135 CXO 1 25867U 99040B 09354.25000000 .00000050 00000-0 10000-3 0 4071 2 25867 066.2710 061.9752 7870139 275.2260 359.4126 00.37805398 5717 ____________________________________________________________________ These 2-Line ...Continue Reading

[list_settings.list_name] Current TLEs

December 19th 2009 PST

HST 1 20580U 90037B 09351.11789052 .00000316 00000-0 11404-4 0 4905 2 20580 028.4720 348.3487 0003274 070.8937 289.2065 15.00866238877369 ISS (ZARYA) 1 25544U 98067A 09352.40894975 .00020221 00000-0 12704-3 0 1935 2 25544 051.6442 079.9291 0007981 091.6255 000.1162 15.76698655634982 CXO 1 25867U 99040B 09349.03082896 .00000000 00000-0 10000-3 0 4068 2 25867 066.2540 062.1359 7857626 275.2485 008.9177 00.37815776 5699 ____________________________________________________________________ These 2-Line ...Continue Reading

[list_settings.list_name] Current TLEs

December 18th 2009 PST

HST 1 20580U 90037B 09351.11789052 .00000316 00000-0 11404-4 0 4905 2 20580 028.4720 348.3487 0003274 070.8937 289.2065 15.00866238877369 ISS (ZARYA) 1 25544U 98067A 09351.39361068 .00017725 00000-0 11215-3 0 1890 2 25544 051.6448 085.1634 0007852 091.3023 353.4172 15.76646095634824 CXO 1 25867U 99040B 09351.58333333 -.00000068 00000-0 10000-3 0 4050 2 25867 066.2603 062.0677 7866146 275.2192 356.4217 00.37806198 5709 ____________________________________________________________________ These 2-Line ...Continue Reading
  • This mailing list is a public mailing list - anyone may join or leave, at any time.
  • This mailing list is announce-only.

International Space Station (ISS) / Hubble Space Telescope (HST) / Chandra X-Ray Observatory Orbital Data via EMAIL

Privacy Policy:

Private list